Weather History for Monett, MO

Change the Weather History Date:

Thursday, March 14, 2013

  Actual Average (KJLN) Record (KJLN)
Temperature  
Mean Temperature 51 °F 48 °F  
Max Temperature 69 °F 59 °F 80 °F (1971)
Min Temperature 33 °F 37 °F 8 °F (1975)
Degree Days  
Heating Degree Days 14 17  
Month to date heating degree days 264  
Since 1 July heating degree days 3518  
Cooling Degree Days 0 0  
Month to date cooling degree days 0  
Year to date cooling degree days 1  
Growing Degree Days 1 (Base 50)    
Moisture  
Dew Point 31 °F    
Average Humidity 49    
Maximum Humidity 65    
Minimum Humidity 31    
Precipitation  
Precipitation 0.00 in 0.11 in 2.32 in (1990)
Month to date precipitation 1.45  
Year to date precipitation 5.80  
Sea Level Pressure  
Sea Level Pressure 30.19 in    
Wind  
Wind Speed 11 mph (South)    
Max Wind Speed 28 mph    
Max Gust Speed 32 mph    
Visibility 10 miles    
Events      
T = Trace of Precipitation, MM = Missing Value Source: NWS Daily Summary

Daily Weather History Graph

Daily Weather History Graph

Search for Another Location

Airport:

Trip Planner

Search our weather history database for the weather conditions in past years. The results will help you decide how hot, cold, wet, or windy it might be!

Date:

Astronomy

Mar. 14, 2013 Rise Set
Actual Time 7:28 AM CDT 7:22 PM CDT
Civil Twilight 7:02 AM CDT 7:48 PM CDT
Nautical Twilight 6:32 AM CDT 8:18 PM CDT
Astronomical Twilight 6:01 AM CDT 8:49 PM CDT
Moon 8:47 AM CDT (3/14) 10:33 PM CDT (3/14)
Length of Visible Light 12h 46m
Length of Day
11h 54m
Waxing Crescent, 9% of the Moon is Illuminated
Mar 14
Waxing Crescent
Mar 19
First Quarter
Mar 27
Full
Apr 2
Last Quarter
Apr 10
New

Hourly Weather History & Observations

Time (CDT) Temp. Windchill Dew Point Humidity Pressure Visibility Wind Dir Wind Speed Gust Speed Precip Events Conditions
12:15 AM 33.8 °F 27.0 °F 21.2 °F 60% 30.34 in 10.0 mi SE 8.1 mph - N/A   Clear
12:35 AM 33.8 °F 27.0 °F 23.0 °F 65% 30.33 in 10.0 mi ESE 8.1 mph - N/A   Clear
12:55 AM 33.8 °F 27.0 °F 23.0 °F 65% 30.32 in 10.0 mi ESE 8.1 mph - N/A   Clear
1:15 AM 33.8 °F 26.4 °F 23.0 °F 65% 30.31 in 10.0 mi ESE 9.2 mph - N/A   Clear
1:35 AM 33.8 °F 26.4 °F 21.2 °F 60% 30.31 in 10.0 mi ESE 9.2 mph - N/A   Clear
1:55 AM 33.8 °F 26.4 °F 21.2 °F 60% 30.30 in 10.0 mi ESE 9.2 mph - N/A   Clear
2:15 AM 33.8 °F 26.4 °F 23.0 °F 65% 30.30 in 10.0 mi ESE 9.2 mph - N/A   Clear
2:35 AM 33.8 °F 27.0 °F 23.0 °F 65% 30.30 in 10.0 mi ESE 8.1 mph - N/A   Clear
2:55 AM 33.8 °F 26.4 °F 23.0 °F 65% 30.30 in 10.0 mi ESE 9.2 mph - N/A   Clear
3:15 AM 33.8 °F 25.8 °F 21.2 °F 60% 30.29 in 10.0 mi ESE 10.4 mph - N/A   Clear
3:35 AM 33.8 °F 26.4 °F 23.0 °F 65% 30.28 in 10.0 mi SE 9.2 mph - N/A   Clear
3:55 AM 33.8 °F 26.4 °F 23.0 °F 65% 30.27 in 10.0 mi SE 9.2 mph - N/A   Clear
4:15 AM 33.8 °F 25.8 °F 23.0 °F 65% 30.27 in 10.0 mi SE 10.4 mph - N/A   Clear
4:35 AM 33.8 °F 25.8 °F 23.0 °F 65% 30.26 in 10.0 mi SE 10.4 mph - N/A   Clear
4:55 AM 33.8 °F 25.8 °F 23.0 °F 65% 30.26 in 10.0 mi SE 10.4 mph - N/A   Clear
5:15 AM 33.8 °F 25.8 °F 23.0 °F 65% 30.27 in 10.0 mi SE 10.4 mph - N/A   Clear
5:35 AM 33.8 °F 25.8 °F 23.0 °F 65% 30.26 in 10.0 mi ESE 10.4 mph - N/A   Clear
5:55 AM 33.8 °F 25.8 °F 23.0 °F 65% 30.26 in 10.0 mi SE 10.4 mph - N/A   Clear
6:15 AM 33.8 °F 25.8 °F 23.0 °F 65% 30.26 in 10.0 mi SE 10.4 mph - N/A   Clear
6:35 AM 33.8 °F 25.8 °F 23.0 °F 65% 30.26 in 10.0 mi SE 10.4 mph - N/A   Clear
6:55 AM 33.8 °F 26.4 °F 23.0 °F 65% 30.26 in 10.0 mi SE 9.2 mph - N/A   Clear
7:15 AM 33.8 °F 27.0 °F 23.0 °F 65% 30.26 in 10.0 mi SE 8.1 mph - N/A   Clear
7:35 AM 35.6 °F 29.9 °F 23.0 °F 60% 30.26 in 10.0 mi SSE 6.9 mph - N/A   Clear
7:55 AM 35.6 °F 29.9 °F 23.0 °F 60% 30.26 in 10.0 mi SSE 6.9 mph - N/A   Clear
8:15 AM 37.4 °F 32.1 °F 23.0 °F 56% 30.26 in 10.0 mi SSE 6.9 mph - N/A   Clear
8:35 AM 41.0 °F 35.8 °F 24.8 °F 53% 30.25 in 10.0 mi South 8.1 mph - N/A   Clear
8:55 AM 44.6 °F 39.2 °F 26.6 °F 49% 30.25 in 10.0 mi South 10.4 mph 16.1 mph N/A   Clear
9:15 AM 46.4 °F 39.8 °F 26.6 °F 46% 30.23 in 10.0 mi South 16.1 mph - N/A   Clear
9:35 AM 50.0 °F - 28.4 °F 43% 30.23 in 10.0 mi SSW 17.3 mph 23.0 mph N/A   Clear
9:55 AM 51.8 °F - 28.4 °F 41% 30.23 in 10.0 mi SSW 20.7 mph 24.2 mph N/A   Clear
10:15 AM 51.8 °F - 30.2 °F 44% 30.23 in 10.0 mi SW 16.1 mph 23.0 mph N/A   Clear
10:35 AM 53.6 °F - 30.2 °F 41% 30.22 in 10.0 mi SW 20.7 mph 27.6 mph N/A   Clear
10:55 AM 55.4 °F - 32.0 °F 41% 30.21 in 10.0 mi SW 20.7 mph 25.3 mph N/A   Clear
11:15 AM 59.0 °F - 32.0 °F 36% 30.20 in 10.0 mi SW 24.2 mph 31.1 mph N/A   Clear
11:35 AM 59.0 °F - 32.0 °F 36% 30.20 in 10.0 mi SW 27.6 mph 32.2 mph N/A   Clear
11:55 AM 59.0 °F - 32.0 °F 36% 30.20 in 10.0 mi SW 25.3 mph 32.2 mph N/A   Clear
12:35 PM 60.8 °F - 33.8 °F 36% 30.19 in 10.0 mi SW 23.0 mph 29.9 mph N/A   Clear
12:55 PM 62.6 °F - 35.6 °F 37% 30.18 in 10.0 mi SW 16.1 mph 26.5 mph N/A   Clear
1:15 PM 62.6 °F - 35.6 °F 37% 30.18 in 10.0 mi SW 18.4 mph 28.8 mph N/A   Clear
1:35 PM 64.4 °F - 35.6 °F 34% 30.16 in 10.0 mi SW 20.7 mph 27.6 mph N/A   Clear
1:55 PM 64.4 °F - 35.6 °F 34% 30.16 in 10.0 mi SW 21.9 mph 25.3 mph N/A   Clear
2:15 PM 64.4 °F - 37.4 °F 37% 30.15 in 10.0 mi SW 23.0 mph 27.6 mph N/A   Clear
2:35 PM 66.2 °F - 37.4 °F 35% 30.14 in 10.0 mi SW 17.3 mph 25.3 mph N/A   Clear
2:55 PM 66.2 °F - 37.4 °F 35% 30.13 in 10.0 mi SW 17.3 mph 23.0 mph N/A   Clear
3:15 PM 68.0 °F - 37.4 °F 33% 30.12 in 10.0 mi SSW 17.3 mph 23.0 mph N/A   Clear
3:35 PM 68.0 °F - 37.4 °F 33% 30.11 in 10.0 mi SW 19.6 mph 26.5 mph N/A   Clear
3:55 PM 69.8 °F - 37.4 °F 31% 30.11 in 10.0 mi SW 15.0 mph 24.2 mph N/A   Clear
4:15 PM 69.8 °F - 37.4 °F 31% 30.11 in 10.0 mi WSW 18.4 mph 23.0 mph N/A   Clear
4:35 PM 69.8 °F - 37.4 °F 31% 30.10 in 10.0 mi SW 19.6 mph 24.2 mph N/A   Clear
4:55 PM 69.8 °F - 39.2 °F 33% 30.10 in 10.0 mi SW 16.1 mph - N/A   Clear
5:15 PM 69.8 °F - 39.2 °F 33% 30.10 in 10.0 mi SW 17.3 mph - N/A   Clear
5:35 PM 69.8 °F - 41.0 °F 35% 30.10 in 10.0 mi SW 10.4 mph - N/A   Clear
5:55 PM 69.8 °F - 39.2 °F 33% 30.10 in 10.0 mi WSW 12.7 mph 17.3 mph N/A   Clear
6:15 PM 68.0 °F - 39.2 °F 35% 30.09 in 10.0 mi WSW 10.4 mph 17.3 mph N/A   Clear
6:35 PM 68.0 °F - 39.2 °F 35% 30.09 in 10.0 mi WSW 10.4 mph - N/A   Clear
6:55 PM 64.4 °F - 39.2 °F 40% 30.10 in 10.0 mi WSW 6.9 mph - N/A   Clear
7:15 PM 62.6 °F - 39.2 °F 42% 30.10 in 10.0 mi WSW 4.6 mph - N/A   Clear
7:35 PM 62.6 °F - 39.2 °F 42% 30.10 in 10.0 mi SSW 5.8 mph - N/A   Clear
7:55 PM 60.8 °F - 39.2 °F 45% 30.09 in 10.0 mi SSW 5.8 mph - N/A   Clear
8:15 PM 60.8 °F - 39.2 °F 45% 30.10 in 10.0 mi South 5.8 mph - N/A   Clear
8:35 PM 59.0 °F - 39.2 °F 48% 30.10 in 10.0 mi SW 9.2 mph - N/A   Clear
8:55 PM 59.0 °F - 41.0 °F 51% 30.11 in 10.0 mi SW 6.9 mph - N/A   Clear
9:15 PM 59.0 °F - 39.2 °F 48% 30.12 in 10.0 mi SSW 4.6 mph - N/A   Clear
9:35 PM 59.0 °F - 39.2 °F 48% 30.12 in 10.0 mi South 4.6 mph - N/A   Clear
9:55 PM 55.4 °F - 39.2 °F 54% 30.11 in 10.0 mi SSE 4.6 mph - N/A   Clear
10:15 PM 55.4 °F - 39.2 °F 54% 30.12 in 10.0 mi SSE 4.6 mph - N/A   Clear
10:35 PM 53.6 °F - 37.4 °F 54% 30.11 in 10.0 mi South 5.8 mph - N/A   Clear
10:55 PM 53.6 °F - 37.4 °F 54% 30.11 in 10.0 mi South 5.8 mph - N/A   Clear
11:15 PM 53.6 °F - 37.4 °F 54% 30.11 in 10.0 mi South 4.6 mph - N/A   Clear
11:35 PM 53.6 °F - 37.4 °F 54% 30.10 in 10.0 mi South 5.8 mph - N/A   Clear
11:55 PM 53.6 °F - 39.2 °F 58% 30.10 in 10.0 mi South 5.8 mph - N/A   Clear